Regional Weather Roundup
Issued by NWS

Home | Current Version | Previous Version | Graphics & Text | Print | Product List | Glossary On
Versions: 1 2 3 4 5 6 7 8 9 10 11 12 13 14 15 16 17 18 19 20 21 22 23 24 25 26 27 28 29 30 31 32 33 34 35 36 37 38 39 40 41 42 43 44 45 46 47 48 49 50
000
ASUS43 KDTX 060301
RWRMI
MICHIGAN HOURLY REGIONAL WEATHER ROUNDUP
NATIONAL WEATHER SERVICE DETROIT/PONTIAC MI
1100 PM EDT TUE MAY 05 2015

NOTE: "FAIR" INDICATES FEW OR NO CLOUDS BELOW 12,000 FEET WITH NO
SIGNIFICANT WEATHER AND/OR OBSTRUCTION TO VISIBILITY.

MIZ047>049-052>055-059>063-066>070-074>076-081>083-060400-
SOUTHEAST LOWER MICHIGAN

CITY           SKY/WX    TMP DP  RH WIND       PRES   REMARKS
ADRIAN         CLOUDY    51  50  96 E7        30.28R FOG
ALMA           CLOUDY    52  46  81 CALM      30.29R
ANN ARBOR      LGT RAIN  52  51  97 E5        30.27S FOG
BAD AXE        PTCLDY    44  41  88 CALM      30.30S
CARO           MOCLDY    46  44  92 CALM      30.29S
DETROIT CITY   LGT RAIN  50  47  89 N3        30.30R
DETROIT        LGT RAIN  53  50  89 NE3       30.29R FOG
FLINT          CLOUDY    52  48  86 CALM      30.29S
GROSSE ILE     RAIN      52  48  87 NW6       30.29R
HILLSDALE      CLOUDY    51  51 100 E9        30.24F FOG
HOWELL         RAIN      52  52  99 E3        30.28S

CITY           SKY/WX    TMP DP  RH WIND       PRES   REMARKS
JACKSON        CLOUDY    51  49  92 E7        30.26S FOG
LAMBERTVILLE   LGT RAIN  52  50  93 E6        30.26F
LANSING        CLOUDY    52  50  93 E6        30.28S
LAPEER         FAIR      46  46 100 S3        30.29S FOG
MASON          LGT RAIN  51  50  95 E3        30.27F
MONROE         CLOUDY    52  52 100 E6        30.26S FOG
PONTIAC        CLOUDY    50  46  86 NE3       30.28S
PORT HOPE        N/A     39  36  89 CALM      30.29S
PORT HURON     CLOUDY    46  45  93 CALM      30.29S
TRI CITIES     CLOUDY    50  45  83 NE6       30.29S
MIDLAND        FAIR      49  43  81 CALM      30.28S
TROY           CLOUDY    51  49  93 E3        30.30S
SAGINAW HB     CLOUDY    50  45  81 CALM      30.29S
$$
MIZ043>046-050>051-056>058-064>065-071>073-077>080-060400-
SOUTHWEST LOWER MICHIGAN

CITY           SKY/WX    TMP DP  RH WIND       PRES   REMARKS
BATTLE CREEK   RAIN      51  49  92 E6        30.26R FOG
BENTON HARBOR  CLOUDY    52  51  97 E7        30.23R
BIG RAPIDS     CLOUDY    54  42  64 E3        30.26F
COLDWATER      CLOUDY    51  50  95 E7        30.24R FOG
FREMONT        FAIR      54  40  60 CALM      30.26S
HOLLAND        CLOUDY    53  50  89 E7        30.25S
GRAND RAPIDS   CLOUDY    53  47  79 E8        30.26S
IONIA          CLOUDY    53  48  83 E6        30.27R
KALAMAZOO      LGT RAIN  52  49  89 E6        30.25S FOG
LUDINGTON      CLOUDY    48  41  77 CALM      30.27S
MARSHALL       DRIZZLE   49  49  97 NW6       30.26R
MOUNT PLEASANT CLOUDY    53  38  56 E5        30.28S
MUSKEGON       CLOUDY    56  41  57 E8        30.25S
SOUTH HAVEN    CLOUDY    53  51  94 E8        30.23S
$$
MIZ016>042-060400-
NORTHERN LOWER MICHIGAN

CITY           SKY/WX    TMP DP  RH WIND       PRES   REMARKS
ALPENA         MOCLDY    44  39  82 CALM      30.31R
BEAVER ISLAND  PTCLDY    43  36  76 CALM      30.28S
BELLAIRE       MOCLDY    46  39  78 CALM      30.27R
CADILLAC       CLOUDY    50  32  50 CALM      30.26S
CHARLEVOIX     MOCLDY    46  35  66 CALM      30.30S
FRANKFORT      MOCLDY    51  33  50 CALM      30.26R
GAYLORD        PTCLDY    53  25  33 CALM      30.29R
GRAYLING       PTCLDY    44  31  61 CALM      30.30R
HARBOR SPRINGS PTCLDY    54  29  39 NE6       30.28R
HOUGHTON LAKE  MOCLDY    50  38  63 SE3       30.29R
MANISTEE       CLOUDY    46  37  71 CALM      30.27R
OSCODA         PTCLDY    36  33  91 CALM      30.30R
PELLSTON       PTCLDY    46  32  58 CALM      30.29R
ROGERS CITY    PTCLDY    45  40  85 CALM      30.30F
TRAVERSE CITY  MOCLDY    45  35  68 CALM      30.26R
$$
MIZ007>008-015-060400-
EASTERN UPPER MICHIGAN

CITY           SKY/WX    TMP DP  RH WIND       PRES   REMARKS
KINROSS        CLEAR     54  32  43 CALM      30.30S
MACKINAC ISLAN CLEAR     49  29  46 E5        30.29R
NEWBERRY       CLEAR     51  33  51 NE6       30.30R
S. S. MARIE    CLEAR     49  32  52 W3        30.30R
MUNISING         N/A     47  34  60 CALM      30.27R
$$
MIZ004>006-011>014-085-060400-
CENTRAL UPPER MICHIGAN

CITY           SKY/WX    TMP DP  RH WIND       PRES   REMARKS
MANISTIQUE     PTCLDY    42  32  67 CALM      30.28R
ESCANABA       PTCLDY    43  34  70 CALM      30.27R
MENOMINEE      MOCLDY    48  34  57 CALM      30.26R
SAWYER-GWINN   CLEAR     55  27  33 SE3       30.27S
$$
MIZ001>003-009>011-084-060400-
WESTERN UPPER MICHIGAN

CITY           SKY/WX    TMP DP  RH WIND       PRES   REMARKS
IRON MOUNTAIN  CLEAR     48  29  47 CALM      30.25S
HOUGHTON       CLEAR     49  27  42 E12       30.24R
COPPER HARBOR    N/A     47  29  49 SW12G23   30.24R
IRONWOOD       CLEAR     61  28  29 S7        30.17S
$$

ABBREVIATIONS USED IN REMARKS
   TC - TEMPERATURE IN CELSIUS
  WCI - WIND CHILL INDEX
   HX - HEAT INDEX
  VSB - VISIBILITY



USA.gov is the U.S. government's official web portal to all federal, state and local government web resources and services.